Location: Kumla
(59.1265°N, 15.1401°E)
Time: 16:00:25
(UTC+01:00)

A-11 Canister half - Pass Details

Date: 06 December 2023
Orbit: 1526 x 1682 km, 47.3° (Epoch: 24 February)

Event Time Altitude Azimuth Distance (km) Brightness Sun altitude
Rises 22:52:48 0° 267° (W) 4,932 11.8 -52.0°
Enters shadow 22:55:27 - 262° (W) 4,160 11.3 -52.1°
Reaches altitude 10° 22:56:16 10° 260° (W) 3,934 - -52.2°
Maximum altitude 23:05:11 38° 197° (SSW) 2,340 - -52.5°
Drops below altitude 10° 23:13:53 10° 135° (SE) 3,838 - -52.8°
Sets 23:17:13 0° 127° (SE) 4,801 - -52.9°
